Location: Peterborough
(44.3091°N, 78.3197°W)
Time: 23:15:48
(UTC-05:00)

Vanguard 1 Rocket - Pass Details

Date: 16 December 2023
Orbit: 654 x 4218 km, 34.3° (Epoch: 24 February)

Event Time Altitude Azimuth Distance (km) Brightness Sun altitude
Exits shadow 05:41:21 19° 261° (W) 6,402 11.1 -20.8°
Maximum altitude 05:59:39 59° 193° (SSW) 3,448 10.2 -17.6°
Drops below altitude 10° 06:13:10 10° 118° (ESE) 4,529 12.3 -15.3°
Sets 06:15:57 0° 114° (ESE) 5,169 13.1 -14.8°
